EW9596 Weather Reports


time (UTC)temp
F
wind
direction
speed
knots
gust
knots
rain 1hr
in
rain 24hr
in
rain mn
in
humidity
%
barometer
mb
20260506150020 58 338 0.9 3.5 0.02 0.17 0.15 91 1006.0
20260506145518 58 29 0.0 0.0 0.02 0.17 0.15 90 1006.0
20260506145017 58 29 0.0 0.0 0.01 0.16 0.14 90 1005.9
20260506144517 57 29 0.0 0.0 0.01 0.16 0.14 90 1006.0
20260506144015 57 29 0.0 0.0 0.02 0.16 0.14 91 1005.8
20260506143514 57 29 0.0 0.0 0.02 0.16 0.14 90 1005.8
20260506143017 57 29 0.0 0.0 0.02 0.16 0.14 90 1005.8
20260506142513 56 30 0.0 0.0 0.02 0.15 0.13 90 1006.0
20260506142015 56 29 0.0 0.0 0.02 0.15 0.13 90 1006.0
20260506141513 56 29 0.0 0.0 0.02 0.15 0.13 90 1006.0
20260506141013 56 29 0.0 0.0 0.03 0.15 0.13 90 1006.0
20260506140513 55 30 0.0 0.0 0.03 0.15 0.13 90 1006.0
20260506140017 55 29 0.0 0.0 0.04 0.15 0.13 90 1006.1
20260506135513 55 29 0.0 0.0 0.05 0.15 0.13 90 1006.1
20260506135010 55 29 0.0 0.0 0.06 0.15 0.13 89 1006.2
20260506134510 55 29 0.0 0.0 0.07 0.15 0.13 89 1006.2
20260506134011 54 29 0.0 0.0 0.07 0.14 0.12 89 1006.2
20260506133509 54 29 0.0 0.0 0.08 0.14 0.12 89 1006.3
20260506133010 54 29 0.0 0.0 0.09 0.14 0.12 89 1006.4
20260506132513 54 29 0.0 0.0 0.09 0.13 0.11 89 1006.5
20260506132006 54 30 0.0 0.0 0.10 0.13 0.11 89 1006.7
20260506131508 54 29 0.0 0.0 0.10 0.13 0.11 88 1006.7
20260506131006 54 29 0.0 0.0 0.09 0.12 0.10 88 1006.9
20260506130506 54 29 0.0 0.0 0.09 0.11 0.09 88 1006.9
20260506130007 54 29 0.0 0.0 0.09 0.11 0.09 88 1007.0
20260506125505 54 29 0.0 0.0 0.08 0.11 0.08 88 1007.0
20260506125005 54 29 0.0 0.0 0.07 0.10 0.07 88 1006.9
20260506124507 54 28 0.0 0.0 0.06 0.09 0.06 88 1007.0
20260506124004 54 28 0.0 0.0 0.05 0.08 0.05 88 1007.0
20260506123504 54 28 0.0 0.0 0.04 0.07 0.04 88 1006.8
20260506123006 54 28 0.0 0.0 0.03 0.06 0.03 88 1006.6
20260506122503 54 28 0.0 0.0 0.02 0.05 0.02 88 1006.7
20260506122004 54 28 0.0 0.0 0.01 0.04 0.01 88 1006.7
20260506121503 54 28 0.0 0.0 0.01 0.04 0.01 88 1006.7
20260506121002 54 28 0.0 0.0 0.01 0.04 0.01 88 1006.6
20260506120503 54 28 0.0 0.0 0.00 0.03 0.00 88 1006.5
20260506120003 54 29 0.0 0.0 0.00 0.03 0.00 88 1006.5
20260506115502 53 82 0.0 0.0 0.00 0.04 0.00 87 1006.5
20260506115002 53 82 0.0 0.0 0.00 0.04 0.00 87 1006.6
20260506114505 53 82 0.0 0.0 0.00 0.04 0.00 87 1006.7
20260506114003 53 82 0.0 0.0 0.00 0.04 0.00 87 1006.9
20260506113600 53 82 0.0 0.0 0.00 0.04 0.00 87 1007.2
20260506113100 53 82 0.0 0.0 0.00 0.04 0.00 87 1007.0
20260506112559 53 82 0.0 0.0 0.00 0.04 0.00 87 1007.1
20260506112058 53 82 0.0 0.0 0.00 0.04 0.00 87 1007.0
20260506111559 53 82 0.0 0.0 0.00 0.04 0.00 87 1007.1
20260506111100 53 82 0.0 0.0 0.00 0.04 0.00 87 1007.1
20260506110559 53 82 0.0 0.0 0.00 0.04 0.00 87 1007.0
20260506110059 53 82 0.0 0.0 0.00 0.04 0.00 87 1006.9
20260506105558 53 82 0.0 0.0 0.00 0.04 0.00 87 1006.9
20260506105100 53 82 0.0 0.0 0.00 0.04 0.00 87 1007.0
20260506104605 53 82 0.0 0.0 0.00 0.04 0.00 87 1006.9
20260506104058 53 82 0.0 0.9 0.00 0.04 0.00 87 1006.9
20260506103556 53 82 0.0 0.9 0.00 0.04 0.00 86 1007.0
20260506103059 53 82 0.0 0.0 0.00 0.04 0.00 86 1007.0
20260506102559 53 82 0.0 0.0 0.00 0.04 0.00 86 1006.9
20260506102056 53 82 0.0 0.0 0.00 0.04 0.00 86 1006.8
20260506101555 53 82 0.0 0.0 0.00 0.04 0.00 85 1006.6
20260506101055 53 82 0.0 0.0 0.00 0.04 0.00 85 1006.5
20260506100555 53 82 0.0 0.0 0.00 0.04 0.00 85 1006.6
20260506100109 53 82 0.0 0.0 0.00 0.04 0.00 85 1006.5
20260506095554 53 82 0.0 0.0 0.00 0.04 0.00 85 1006.4
20260506095056 53 82 0.0 0.0 0.00 0.04 0.00 85 1006.5
20260506094554 54 82 0.0 0.0 0.00 0.04 0.00 85 1006.6
20260506094053 54 82 0.0 0.0 0.00 0.04 0.00 85 1006.6
20260506093554 54 82 0.0 0.0 0.00 0.04 0.00 85 1006.6
20260506093056 54 82 0.0 0.0 0.00 0.04 0.00 85 1006.6
20260506092553 54 82 0.0 0.9 0.00 0.04 0.00 85 1006.6
20260506092052 54 82 0.0 0.9 0.00 0.04 0.00 85 1006.7
20260506091555 54 82 0.0 0.0 0.00 0.04 0.00 85 1006.7
20260506091049 54 82 0.0 0.0 0.00 0.04 0.00 85 1006.7
20260506090550 54 82 0.0 1.7 0.00 0.04 0.00 84 1006.8
20260506090049 54 82 0.0 1.7 0.00 0.04 0.00 84 1006.8
20260506085548 54 82 0.0 0.0 0.00 0.04 0.00 84 1006.9
20260506085150 54 82 0.0 0.0 0.00 0.04 0.00 84 1006.9
20260506084548 54 82 0.0 0.0 0.00 0.04 0.00 84 1007.1
20260506084048 54 82 0.0 0.9 0.00 0.04 0.00 84 1007.1
20260506083549 54 82 0.0 0.9 0.00 0.04 0.00 84 1007.3
20260506083047 54 82 0.0 2.6 0.00 0.04 0.00 84 1007.3
20260506082546 54 82 0.0 3.5 0.00 0.04 0.00 84 1007.4
20260506082046 54 217 0.9 3.5 0.00 0.04 0.00 84 1007.5
20260506081548 54 56 0.0 0.0 0.00 0.04 0.00 83 1007.3
20260506081048 54 56 0.0 0.0 0.00 0.04 0.00 84 1007.3
20260506080546 54 56 0.0 0.0 0.00 0.04 0.00 84 1007.2
20260506073044 54 53 0.0 0.0 0.00 0.04 0.00 83 1007.2
20260506072544 54 53 0.0 0.0 0.00 0.04 0.00 83 1007.2
20260506072044 54 53 0.0 0.0 0.00 0.04 0.00 83 1007.2
20260506071549 54 61 0.0 0.0 0.00 0.04 0.00 83 1007.2
20260506071042 54 61 0.0 0.0 0.00 0.04 0.00 83 1007.1
20260506070546 54 61 0.0 0.0 0.00 0.04 0.00 83 1007.1
20260506062039 55 61 0.0 0.0 0.00 0.04 0.00 82 1007.6
20260506061535 55 61 0.0 0.0 0.00 0.04 0.00 82 1007.7
20260506061037 55 61 0.0 0.0 0.00 0.04 0.00 82 1007.8
20260506060534 55 61 0.0 0.0 0.00 0.04 0.00 82 1007.9
20260506051027 55 62 0.0 0.0 0.00 0.04 0.00 81 1008.6
20260506050526 55 62 0.0 0.0 0.00 0.04 0.00 80 1008.6
20260506045024 56 62 0.0 0.0 0.00 0.04 0.00 78 1008.8
20260506044530 56 62 0.0 0.0 0.00 0.04 0.00 78 1008.7
20260506044023 56 62 0.0 0.0 0.00 0.04 0.00 78 1008.8
20260506043523 56 62 0.0 0.0 0.00 0.04 0.00 78 1008.7
20260506043025 56 62 0.0 0.0 0.00 0.04 0.00 78 1008.8
20260506042524 56 62 0.0 0.0 0.00 0.04 0.00 78 1008.8
20260506042022 57 62 0.0 0.0 0.00 0.04 0.00 78 1008.8
20260506041521 57 62 0.0 0.0 0.00 0.04 0.00 78 1008.8
20260506041020 57 62 0.0 0.0 0.00 0.04 0.00 77 1008.8
20260506040519 57 62 0.0 0.0 0.00 0.04 0.00 77 1008.8
20260506040017 57 62 0.0 0.0 0.00 0.04 0.00 77 1009.0
20260506035521 57 62 0.0 0.0 0.00 0.04 0.04 76 1009.0
20260506035018 57 62 0.0 0.0 0.00 0.04 0.04 76 1009.1
20260506034519 58 62 0.0 0.9 0.00 0.04 0.04 76 1009.0
20260506034018 58 62 0.0 0.9 0.00 0.04 0.04 75 1009.2
20260506033517 58 67 0.0 0.0 0.00 0.04 0.04 75 1009.3
20260506033018 58 69 0.0 0.0 0.00 0.04 0.04 74 1009.5
20260506032516 58 69 0.0 0.9 0.00 0.04 0.04 74 1009.5
20260506032016 59 69 0.0 2.6 0.00 0.04 0.04 74 1009.5
20260506031527 59 69 0.0 5.2 0.00 0.04 0.04 74 1009.4
20260506031016 59 28 1.7 5.2 0.00 0.04 0.04 74 1009.1
20260506030519 59 304 0.0 5.2 0.00 0.04 0.04 74 1009.3
20260506030040 59 57 0.0 3.5 0.00 0.04 0.04 74 1009.5
20260506025515 60 53 1.7 5.2 0.00 0.04 0.04 75 1009.4
20260506025017 60 56 2.6 5.2 0.00 0.04 0.04 76 1009.2
20260506024524 60 24 2.6 5.2 0.00 0.04 0.04 77 1009.0
20260506024014 61 308 0.9 5.2 0.00 0.04 0.04 77 1009.3
20260506023514 61 230 1.7 6.1 0.00 0.04 0.04 78 1009.3
20260506023013 61 281 1.7 7.0 0.00 0.04 0.04 79 1009.2
20260506022512 62 355 1.7 7.0 0.00 0.04 0.04 80 1009.0
20260506022011 62 22 0.0 5.2 0.00 0.04 0.04 80 1008.9
20260506021512 62 24 1.7 5.2 0.00 0.04 0.04 80 1008.8
20260506021012 62 46 0.0 2.6 0.00 0.04 0.04 80 1008.9
20260506020515 62 44 0.0 0.9 0.00 0.04 0.04 80 1008.8
20260506020010 62 44 0.0 0.9 0.00 0.04 0.04 80 1008.7
20260506015514 62 44 0.0 0.0 0.00 0.04 0.04 80 1008.5
20260506015010 62 44 0.0 0.0 0.00 0.04 0.04 80 1008.4
20260506014509 62 44 0.0 2.6 0.00 0.04 0.04 80 1008.5
20260506014008 62 44 0.0 2.6 0.00 0.04 0.04 80 1008.5
20260506013506 62 43 0.0 1.7 0.00 0.04 0.04 81 1008.4
20260506013006 62 42 0.0 4.3 0.00 0.04 0.04 81 1008.3
20260506012505 63 49 0.9 4.3 0.00 0.04 0.04 81 1008.2
20260506012006 63 355 0.9 4.3 0.00 0.04 0.04 82 1008.0
20260506011504 63 348 0.9 4.3 0.00 0.04 0.04 82 1008.0
20260506011008 63 75 0.0 2.6 0.00 0.04 0.04 81 1007.8
20260506010503 63 277 0.0 1.7 0.00 0.04 0.04 81 1007.8
20260506010005 63 273 0.0 2.6 0.00 0.04 0.04 80 1007.9
20260506005505 63 273 0.0 2.6 0.00 0.04 0.04 80 1007.7
20260506005001 63 246 0.0 0.0 0.00 0.04 0.04 79 1007.3
20260506004505 63 246 0.0 0.0 0.00 0.04 0.04 78 1007.1
20260506004001 63 246 0.0 0.0 0.00 0.04 0.04 77 1007.0
20260506003501 63 246 0.0 0.0 0.00 0.04 0.04 77 1006.9
20260506003100 64 246 0.0 0.0 0.00 0.04 0.04 77 1006.9
20260506002601 64 246 0.0 0.0 0.00 0.04 0.04 77 1006.9
20260506002100 64 246 0.0 0.0 0.00 0.04 0.04 77 1006.8
20260506001602 64 246 0.0 0.0 0.00 0.04 0.04 77 1006.9
20260506001100 64 246 0.0 0.0 0.00 0.04 0.04 77 1006.8
20260506000600 65 246 0.0 0.0 0.00 0.04 0.04 77 1006.8
20260506000006 65 246 0.0 0.0 0.00 0.04 0.04 76 1006.7
20260505235559 65 246 0.0 0.0 0.00 0.04 0.04 76 1006.7
20260505235059 65 246 0.0 0.0 0.00 0.04 0.04 76 1006.7
20260505234601 65 246 0.0 0.0 0.00 0.04 0.04 76 1006.7
20260505234502 65 246 0.0 0.0 0.00 0.04 0.04 76 1006.8
20260505234059 65 246 0.0 0.0 0.00 0.04 0.04 76 1006.8
20260505234001 65 246 0.0 0.0 0.00 0.04 0.04 76 1006.8
20260505233558 66 246 0.0 0.0 0.00 0.04 0.04 76 1006.8
20260505233123 66 246 0.0 0.0 0.00 0.04 0.04 76 1006.8
20260505232558 66 246 0.0 0.0 0.00 0.04 0.04 76 1006.8
20260505232058 66 246 0.0 0.0 0.00 0.04 0.04 75 1006.8
20260505231558 66 246 0.0 0.0 0.00 0.04 0.04 75 1006.8
20260505231103 66 246 0.0 0.0 0.00 0.04 0.04 75 1006.8
20260505230557 67 246 0.0 0.0 0.00 0.04 0.04 74 1006.7
20260505230057 67 246 0.0 0.0 0.00 0.04 0.04 74 1006.6
20260505225557 67 246 0.0 0.0 0.00 0.04 0.04 73 1006.7
20260505225058 67 246 0.0 0.0 0.00 0.04 0.04 73 1006.7
20260505224557 67 246 0.0 0.0 0.00 0.04 0.04 73 1006.6
20260505224101 67 246 0.0 0.0 0.00 0.04 0.04 73 1006.5
20260505223557 67 246 0.0 0.9 0.00 0.04 0.04 72 1006.5
20260505223056 68 246 0.0 0.9 0.00 0.04 0.04 72 1006.5
20260505222556 68 246 0.0 2.6 0.00 0.04 0.04 72 1006.4
20260505222056 68 246 0.0 3.5 0.00 0.04 0.04 72 1006.3
20260505221602 68 247 1.7 6.1 0.00 0.04 0.04 71 1006.3
20260505221058 68 257 1.7 5.2 0.00 0.04 0.04 71 1006.8
20260505220554 68 234 0.9 4.3 0.00 0.04 0.04 71 1006.7
20260505220055 68 227 0.9 4.3 0.00 0.04 0.04 71 1006.4
20260505215554 68 273 0.0 0.0 0.00 0.04 0.04 70 1006.1
20260505215054 68 273 0.0 0.0 0.00 0.04 0.04 70 1005.8
20260505214554 68 269 0.0 0.0 0.00 0.04 0.04 70 1006.0
20260505214054 68 269 0.0 1.7 0.00 0.04 0.04 70 1006.0
20260505213553 68 273 0.0 1.7 0.00 0.04 0.04 71 1006.0
20260505213057 68 183 0.0 2.6 0.00 0.04 0.04 71 1005.8
20260505212553 68 183 0.0 2.6 0.00 0.04 0.04 71 1005.7
20260505212053 68 184 0.0 4.3 0.00 0.04 0.04 72 1005.8
20260505211553 68 170 1.7 4.3 0.00 0.04 0.04 72 1005.8
20260505211052 67 292 0.9 3.5 0.00 0.04 0.04 73 1005.8
20260505210555 67 132 0.0 3.5 0.00 0.04 0.04 74 1005.7
20260505210051 67 134 0.9 3.5 0.00 0.04 0.04 74 1005.7
20260505205552 67 218 0.9 4.3 0.00 0.04 0.04 76 1005.8
20260505205055 66 237 1.7 4.3 0.00 0.04 0.04 77 1005.9
20260505204551 66 171 0.0 6.1 0.00 0.04 0.04 77 1006.0
20260505204051 66 157 0.9 6.1 0.02 0.04 0.04 77 1006.0
20260505203553 66 203 0.0 3.5 0.02 0.04 0.04 77 1006.2
20260505203055 66 192 0.0 2.6 0.02 0.04 0.04 76 1006.3
20260505202548 66 208 0.9 3.5 0.02 0.04 0.04 75 1006.3
20260505202050 66 180 0.0 3.5 0.02 0.04 0.04 74 1006.3
20260505201551 67 244 0.0 3.5 0.02 0.04 0.04 73 1006.3
20260505201049 67 175 0.0 2.6 0.02 0.04 0.04 72 1006.3
20260505200549 67 178 0.0 6.1 0.02 0.04 0.04 71 1006.4
20260505200048 68 161 1.7 6.1 0.02 0.04 0.04 70 1006.2
20260505195548 68 216 0.0 14.8 0.02 0.04 0.04 68 1006.2
20260505195048 69 272 1.7 20.9 0.02 0.04 0.04 66 1006.5
20260505194555 71 230 7.0 32.2 0.02 0.04 0.04 61 1006.5
20260505194047 76 271 13.0 29.5 0.00 0.02 0.02 50 1006.4
20260505193546 78 215 8.7 20.0 0.00 0.02 0.02 36 1005.1
20260505193103 79 262 2.6 13.9 0.00 0.02 0.02 34 1004.5
20260505192546 79 215 4.3 13.9 0.00 0.02 0.02 33 1004.2
20260505192047 80 220 6.1 13.9 0.00 0.02 0.02 32 1004.1
20260505191546 80 259 4.3 20.9 0.00 0.02 0.02 33 1003.9
20260505191045 81 150 7.0 24.3 0.00 0.02 0.02 32 1003.9
20260505190545 81 254 13.0 24.3 0.00 0.02 0.02 32 1003.8
20260505190046 80 232 3.5 15.6 0.00 0.02 0.02 37 1003.9
20260505185545 79 250 6.1 14.8 0.00 0.02 0.02 38 1004.0
20260505185041 79 200 5.2 13.0 0.00 0.02 0.02 39 1004.1
20260505184540 78 230 4.3 13.0 0.00 0.02 0.02 40 1004.4
20260505184043 78 261 5.2 16.5 0.00 0.02 0.02 38 1004.6
20260505183539 78 350 6.1 16.5 0.00 0.02 0.02 40 1004.6
20260505183039 77 293 7.0 13.9 0.00 0.02 0.02 42 1004.7
20260505182538 77 263 2.6 13.9 0.00 0.02 0.02 45 1004.7
20260505182038 76 261 5.2 10.4 0.00 0.02 0.02 50 1004.9
20260505181536 76 211 2.6 7.8 0.00 0.02 0.02 52 1004.9
20260505181036 76 251 3.5 7.8 0.00 0.02 0.02 53 1005.2
20260505180534 76 217 1.7 7.8 0.00 0.02 0.02 54 1005.4
20260505180039 76 181 4.3 10.4 0.00 0.02 0.02 54 1005.5
20260505175534 76 218 3.5 15.6 0.00 0.02 0.02 51 1005.8
20260505175033 77 256 7.8 16.5 0.00 0.02 0.02 45 1005.8
20260505174533 77 228 6.1 13.0 0.00 0.02 0.02 44 1005.7
20260505174033 77 247 4.3 13.0 0.00 0.02 0.02 45 1005.7
20260505173533 76 214 7.8 15.6 0.00 0.02 0.02 45 1005.7
20260505173131 76 223 7.8 15.6 0.00 0.02 0.02 44 1005.6
20260505172532 77 230 6.1 13.9 0.00 0.02 0.02 44 1005.8
20260505172031 77 217 3.5 13.9 0.00 0.02 0.02 44 1005.8
20260505171531 77 235 2.6 11.3 0.00 0.02 0.02 43 1005.8
20260505171032 77 219 4.3 17.4 0.00 0.02 0.02 44 1005.8
20260505170532 78 278 7.0 17.4 0.00 0.02 0.02 43 1005.5
20260505170034 78 237 5.2 12.2 0.00 0.02 0.02 43 1005.5
20260505165531 78 292 4.3 16.5 0.00 0.02 0.02 43 1005.2
20260505165031 78 259 6.1 16.5 0.00 0.02 0.02 42 1005.4
20260505164537 78 13 3.5 15.6 0.00 0.02 0.02 43 1005.2
20260505164031 78 194 6.1 12.2 0.00 0.02 0.02 43 1005.4
20260505163530 78 130 5.2 10.4 0.00 0.02 0.02 43 1005.4
20260505163036 78 209 6.1 10.4 0.00 0.02 0.02 42 1005.6
20260505162528 78 292 2.6 13.9 0.00 0.02 0.02 41 1005.6
20260505162030 78 224 4.3 13.9 0.00 0.02 0.02 42 1005.8
20260505161527 78 228 4.3 17.4 0.00 0.02 0.02 42 1005.9
20260505161027 78 152 7.0 17.4 0.00 0.02 0.02 41 1005.9
20260505160529 78 227 6.1 15.6 0.00 0.02 0.02 41 1005.9
20260505153029 78 203 5.2 15.6 0.00 0.02 0.02 42 1006.0
20260505152522 78 331 5.2 16.5 0.00 0.02 0.02 41 1006.0
20260505152029 78 229 6.1 16.5 0.00 0.02 0.02 42 1006.0
20260505151522 78 281 5.2 12.2 0.00 0.02 0.02 43 1006.0
20260505151020 77 275 4.3 12.2 0.00 0.02 0.02 45 1006.0
20260505150519 77 234 4.3 10.4 0.00 0.02 0.02 44 1006.1